カタログに戻る

HISPASAT 36W-1

運用中通信GEO
NORAD 41942·PAYLOAD·🇪🇸 Spain

打ち上げ Jan 28, 2017 から Guiana Space Centre

Loading…

TLE

最新Source: Space-Track

元期: Sep 14, 2026, 22:11 UTC

1 41942U 17006A   26257.92442742 -.00000252  00000-0  00000-0 0  9990
2 41942   0.0176 291.4046 0000990 240.7345 118.5629  1.00272190 35142

AllMySatでHISPASAT 36W-1をリアルタイム追跡

Download on the App Store